Starlink 3551

operational
NORAD ID: 51887 Int'l Des: 2022-022 Owner: SPXS Country: US Constellation: starlink
LEOCIRCULAR

About Starlink 3551

Description loading...

Live Position

Loading 3D Globe...

Upcoming Passes

Altitude History

Altitude vs Time

uPlot chart will show altitude changes over time

Two-Line Element Set

1 51887U 22022AM 25352.81347979 .00000456 00000-0 46698-4 0 9994
2 51887 53.2177 2.1893 0001038 90.3693 269.7418 15.08848601211036
Epoch: Dec 18, 2025 • Age: 10 hours

Current Status

Altitude 542.2 km
Velocity 7.60 km/s
Sub-Earth Point 37.20°N, 26.74°W
Launch Date Mar 3, 2022
Age 3.7 years
Type internet

Technical Details

Classification Payload
Mass 297.00 kg
Dry Mass 275.00 kg
Total Mass 297.00 kg
Length 0.20 m
Diameter 2.80 m
Span 9.00 m
Shape Box + pan
Manufacturer SPXS
Bus Type Starlink
Phase Status In Orbit
Owner/State SPXS/US

Large Constellations

Loading constellations...